This demonstration page uses our WeatherBlox Daily Observations layout. Learn more.

Left ArrowRight Arrow

Hourly Observations for March 2, 2018

Temp ( °F °C ) Dew Point ( °F °C ) Humidity (%) Winds ( mph kmh ) Pressure ( in mb ) Visibility ( mi km ) Precip ( " mm )
12:54 am 00:54 Clear 24 -4.4 19 -7.2 81 81 Calm 30.38 1029 10 16 0.00 0.00
1:54 am 01:54 Clear 24 -4.4 19 -7.2 81 81 Calm 30.37 1029 10 16 0.00 0.00
2:54 am 02:54 Clear 25 -3.9 20 -6.7 81 81 Calm 30.34 1027 10 16 0.00 0.00
3:54 am 03:54 Clear 27 -2.8 20 -6.7 75 75 Calm 30.32 1027 10 16 0.00 0.00
4:54 am 04:54 Clear 29 -1.7 21 -6.1 72 72 Calm 30.33 1027 10 16 0.00 0.00
5:54 am 05:54 Clear 31 -0.6 23 -5 72 72 SE 7 11 30.31 1027 10 16 0.00 0.00
6:54 am 06:54 Clear 31 -0.6 23 -5 72 72 SSE 10 17 30.35 1028 10 16 0.00 0.00
7:54 am 07:54 Sunny 35 1.7 23 -5 61 61 SSE 13 20 30.34 1028 10 16 0.00 0.00
8:54 am 08:54 Sunny 38 3.3 23 -5 55 55 SSE 15 24 30.34 1028 10 16 0.00 0.00
9:54 am 09:54 Sunny 43 6.1 23 -5 45 45 SSE 21 33 30.34 1028 10 16 0.00 0.00
10:54 am 10:54 Sunny 46 7.8 23 -5 40 40 SE 17 28 30.31 1027 10 16 0.00 0.00
11:54 am 11:54 Sunny 50 10 22 -5.6 33 33 SSE 23 37 30.25 1024 10 16 0.00 0.00
12:54 pm 12:54 Sunny 52 11.1 23 -5 32 32 SE 25 41 30.18 1022 10 16 0.00 0.00
1:54 pm 13:54 Sunny 57 13.9 23 -5 27 27 S 25 41 30.15 1021 10 16 0.00 0.00
2:54 pm 14:54 Sunny 59 15 24 -4.4 26 26 S 22 35 30.13 1020 10 16 0.00 0.00
3:54 pm 15:54 Sunny 61 16.1 23 -5 23 23 S 21 33 30.11 1020 10 16 0.00 0.00
4:54 pm 16:54 Sunny 60 15.6 24 -4.4 25 25 SSE 20 31 30.10 1019 10 16 0.00 0.00
5:54 pm 17:54 Sunny 57 13.9 23 -5 27 27 SSE 15 24 30.10 1019 10 16 0.00 0.00
6:54 pm 18:54 Clear 54 12.2 25 -3.9 33 33 SE 15 24 30.11 1020 10 16 0.00 0.00
7:54 pm 19:54 Clear 51 10.6 25 -3.9 36 36 SE 16 26 30.12 1020 10 16 0.00 0.00
8:54 pm 20:54 Clear 49 9.4 26 -3.3 41 41 SSE 15 24 30.12 1020 10 16 0.00 0.00
9:54 pm 21:54 Clear 49 9.4 27 -2.8 43 43 SSE 18 30 30.11 1020 10 16 0.00 0.00
10:54 pm 22:54 Clear 46 7.8 28 -2.2 50 50 SSE 15 24 30.11 1020 10 16 0.00 0.00
11:54 pm 23:54 Clear 46 7.8 29 -1.7 51 51 SSE 14 22 30.11 1020 10 16 0.00 0.00

Powered by AerisWeather